Location: Krakow
(50.0830°N, 19.9170°E)
Time: 22:10:02
(UTC+01:00)

Transit 2A Rocket - Pass Details

Date: 16 December 2023
Orbit: 590 x 905 km, 66.7° (Epoch: 03 March)

Event Time Altitude Azimuth Distance (km) Brightness Sun altitude
Rises 18:07:19 0° 205° (SSW) 2,981 8.5 -22.6°
Reaches altitude 10° 18:09:41 10° 202° (SSW) 2,031 7.6 -23.0°
Enters shadow 18:13:33 55° 161° (SSE) 747 4.8 -23.6°
Maximum altitude 18:14:10 61° 122° (ESE) 698 - -23.7°
Drops below altitude 10° 18:18:26 10° 42° (NE) 1,942 - -24.3°
Sets 18:20:39 0° 39° (NE) 2,837 - -24.7°
